Location: Kitt Peak
(31.9633°N, 111.6000°W)
Time: 03:08:43
(UTC-07:00)

Amateur Radio Satellites - All Passes

Search period start: 29 September 2016 02:38
Search period end: 30 September 2016 02:38
Location: Kitt Peak, 31.9633°N, 111.6000°W

Satellite Date Start Highest point End Downlink Frequencies (MHz)
Time Altitude Azimuth
KKS-1 29 Sep 02:45:21 02:47:57 15° 68° (ENE) 02:50:32 437.445
BEESAT 29 Sep 02:49:54 02:54:19 39° 261° (W) 02:58:46 436.000
AIST 2 29 Sep 02:54:18 02:58:22 88° 300° (WNW) 03:02:30 435.215
Oscar 19 29 Sep 03:05:07 03:08:36 18° 293° (WNW) 03:12:03 437.125/150
STARS 29 Sep 03:15:26 03:17:58 15° 68° (ENE) 03:20:30 437.465
ISS 29 Sep 03:18:57 03:22:10 56° 228° (SW) 03:25:24 145.825
YUBILEINY 29 Sep 03:23:42 03:32:15 56° 279° (W) 03:40:50 435.215
Cosmos 2504 29 Sep 03:27:19 03:34:41 61° 92° (E) 03:41:43 435.465 / 435.565
RS-15 29 Sep 03:46:24 03:57:45 39° 50° (NE) 04:08:47 29.354- 29.394
PCSat 29 Sep 03:51:32 03:56:56 76° 295° (WNW) 04:02:22 145.827
CUBESAT XI-V 29 Sep 03:52:18 03:55:15 17° 68° (ENE) 03:58:12 437.345
AO-7 29 Sep 03:54:43 04:02:56 63° 104° (ESE) 04:11:08 29.400- 29.500
ITAMSAT 1 29 Sep 03:59:53 04:04:50 45° 288° (WNW) 04:09:48 435.822/435.867
MOZHAYETS 4 29 Sep 04:04:33 04:08:45 37° 262° (W) 04:13:01
AIST 1 29 Sep 04:08:45 04:12:19 25° 90° (E) 04:15:53
KKS-1 29 Sep 04:20:01 04:24:09 38° 261° (W) 04:28:18 437.445
AO-85 29 Sep 04:40:13 04:41:42 12° 49° (NE) 04:43:11 145.980
STARS 29 Sep 04:49:54 04:53:58 37° 261° (W) 04:58:02 437.465
Cosmos 2504 29 Sep 05:23:33 05:28:24 18° 287° (WNW) 05:33:10 435.465 / 435.565
CUBESAT XI-V 29 Sep 05:27:54 05:32:15 39° 262° (W) 05:36:40 437.345
CUSAT 1 29 Sep 05:30:30 05:37:41 51° 76° (ENE) 05:43:30 437.405
DANDE 29 Sep 05:32:08 05:38:47 26° 70° (ENE) 05:44:53 436.750
HORYU 2 29 Sep 05:35:32 05:40:00 84° 103° (ESE) 05:44:27 437.375
LilacSat-2 29 Sep 05:42:31 05:44:39 14° 95° (E) 05:46:47 437.200
AIST 1 29 Sep 05:46:34 05:49:49 20° 283° (WNW) 05:53:03
AO-7 29 Sep 05:48:44 05:55:02 25° 300° (WNW) 06:01:21 29.400- 29.500
NOAA 15 29 Sep 05:48:53 05:53:18 26° 97° (E) 05:57:40 137.62
GOMX 1 29 Sep 05:58:18 06:01:59 27° 96° (E) 06:05:32 467.674
RS-15 29 Sep 05:58:44 06:10:40 59° 250° (WSW) 06:22:14 29.354- 29.394
CUTE-I 29 Sep 06:09:30 06:14:23 35° 98° (E) 06:19:15 437.470
Cubesat XI-IV 29 Sep 06:09:49 06:14:42 35° 98° (E) 06:19:33 437.490
O/OREOS (USA 219) 29 Sep 06:12:26 06:16:46 47° 105° (ESE) 06:21:10 437.305
DOVE 4 29 Sep 06:13:17 06:15:40 15° 94° (E) 06:18:04 437.250
BRITE-PL 29 Sep 06:15:59 06:20:34 60° 285° (WNW) 06:24:49 437.365/2234.400
AO-85 29 Sep 06:18:34 06:22:25 46° 246° (WSW) 06:26:06 145.980
NOAA 18 29 Sep 07:02:32 07:08:02 89° 284° (WNW) 07:13:31 137.9125
STRAND 1 29 Sep 07:05:08 07:10:14 90° 80° (E) 07:15:21 437.568
CUTE 1.7 + AOD 2 29 Sep 07:07:46 07:08:09 10° 92° (E) 07:08:32 437.475
CANX-2 29 Sep 07:07:51 07:09:47 13° 93° (E) 07:11:43 2200.000
CUSAT 1 29 Sep 07:13:41 07:18:55 22° 277° (W) 07:23:29 437.405
CINEMA 3 29 Sep 07:13:49 07:16:50 19° 96° (E) 07:19:54 145.822/145.860
DANDE 29 Sep 07:13:51 07:22:03 60° 268° (W) 07:29:14 436.750
HO-68 29 Sep 07:15:08 07:20:34 23° 96° (E) 07:25:58 435.675
LilacSat-2 29 Sep 07:15:37 07:18:56 28° 287° (WNW) 07:22:15 437.200
NOAA 15 29 Sep 07:28:25 07:32:58 30° 290° (WNW) 07:37:29 137.62
GOMX 1 29 Sep 07:36:59 07:39:49 17° 291° (WNW) 07:42:37 467.674
GONETS M04 29 Sep 07:46:17 07:54:39 49° 89° (E) 08:03:02
PRISM 29 Sep 07:49:10 07:52:11 20° 70° (ENE) 07:55:12 437.425
DOVE 4 29 Sep 07:49:48 07:53:26 30° 287° (WNW) 07:57:03 437.250
CUTE-I 29 Sep 07:50:01 07:54:09 23° 292° (WNW) 07:58:19 437.470
Cubesat XI-IV 29 Sep 07:50:21 07:54:31 24° 292° (WNW) 07:58:40 437.490
O/OREOS (USA 219) 29 Sep 07:54:13 07:56:25 13° 300° (WNW) 07:58:38 437.305
COMPASS 1 29 Sep 08:07:33 08:11:06 26° 97° (E) 08:14:37 437.405
CUBEBUG 2 29 Sep 08:10:46 08:14:13 22° 97° (E) 08:17:44 437.445
UWE-3 29 Sep 08:25:41 08:29:04 22° 96° (E) 08:32:30 435.000/436.395/437.385
Cosmos 2499 29 Sep 08:26:14 08:33:26 77° 94° (E) 08:40:28 435.465 / 435.565
SEEDS 29 Sep 08:38:28 08:42:44 79° 282° (WNW) 08:46:58 437.485
CUTE 1.7 + AOD 2 29 Sep 08:40:02 08:44:12 49° 285° (WNW) 08:48:20 437.475
CANX-2 29 Sep 08:41:43 08:45:45 40° 286° (WNW) 08:49:45 2200.000
Oscar 11 29 Sep 08:46:39 08:50:02 22° 96° (E) 08:53:23 145.826/435.025
CINEMA 3 29 Sep 08:50:24 08:53:55 26° 287° (WNW) 08:57:30 145.822/145.860
ZACube-1 29 Sep 08:51:15 08:54:57 26° 97° (E) 08:58:43 437.345
AAUSAT CUBESAT 2 29 Sep 08:56:30 09:00:42 86° 103° (ESE) 09:04:52 437.432
HO-68 29 Sep 09:01:35 09:08:29 54° 290° (WNW) 09:15:23 435.675
PHONESAT 2.4 29 Sep 09:02:36 09:05:29 65° 151° (SSE) 09:08:24 2401.200-2431.200
ANTELSAT 29 Sep 09:18:39 09:22:05 24° 71° (ENE) 09:25:31 437.575/2403.000
BEESAT 3 29 Sep 09:22:15 09:26:05 45° 59° (ENE) 09:29:54 437.485
PRISM 29 Sep 09:23:48 09:27:17 25° 263° (W) 09:30:46 437.425
TIGRISAT 29 Sep 09:38:07 09:42:05 39° 74° (ENE) 09:46:02 435.000
COMPASS 1 29 Sep 09:43:26 09:46:26 19° 290° (WNW) 09:49:26 437.405
FUNcube-1 29 Sep 09:43:51 09:48:13 74° 283° (WNW) 09:52:40 145.935
GONETS M04 29 Sep 09:44:10 09:51:36 30° 286° (WNW) 09:59:07
CUBEBUG 2 29 Sep 09:47:13 09:50:43 24° 288° (WNW) 09:54:17 437.445
UWE-3 29 Sep 10:01:49 10:05:25 25° 288° (WNW) 10:09:04 435.000/436.395/437.385
DELFI C3 29 Sep 10:02:47 10:06:48 72° 101° (E) 10:10:46 145.870
UNISAT 6 29 Sep 10:19:02 10:23:13 56° 259° (W) 10:27:25 437.425
BEESAT 2 29 Sep 10:21:03 10:25:04 73° 244° (WSW) 10:29:02 435.950
Oscar 11 29 Sep 10:22:31 10:26:02 25° 289° (WNW) 10:29:34 145.826/435.025
Cosmos 2499 29 Sep 10:24:02 10:27:11 13° 290° (WNW) 10:30:21 435.465 / 435.565
ZACube-1 29 Sep 10:27:45 10:31:02 21° 289° (WNW) 10:34:23 437.345
QB50P2 29 Sep 10:31:28 10:34:38 21° 71° (ENE) 10:37:49 145.880/145.840
HUMSAT D 29 Sep 10:32:44 10:37:01 77° 103° (ESE) 10:41:18 437.325/437.525
POLYITAN 1 29 Sep 10:33:40 10:36:50 21° 71° (ENE) 10:40:00 437.675
JAS-2 29 Sep 10:35:13 10:40:23 26° 64° (ENE) 10:46:00 435.910
PHONESAT 2.4 29 Sep 10:39:20 10:41:45 23° 345° (NNW) 10:44:11 2401.200-2431.200
ANTELSAT 29 Sep 10:55:29 10:58:42 21° 264° (W) 11:01:55 437.575/2403.000
BEESAT 3 29 Sep 11:02:43 11:03:17 10° 253° (WSW) 11:03:50 437.485
BUGSAT 1 29 Sep 11:05:12 11:07:43 16° 70° (ENE) 11:10:13 437.445
DUCHIFAT 1 29 Sep 11:08:11 11:12:11 48° 75° (ENE) 11:16:12 145.980
QB50P1 29 Sep 11:12:04 11:16:13 64° 76° (ENE) 11:20:23 145.935-145.965
TIGRISAT 29 Sep 11:17:02 11:18:53 13° 266° (W) 11:20:43 435.000
AIST 2 29 Sep 11:21:22 11:23:48 15° 52° (NE) 11:26:14 435.215
POPSAT HIP 1 29 Sep 11:25:42 11:29:55 86° 260° (W) 11:34:07 437.405
CUBEBUG 1 29 Sep 11:32:18 11:36:02 28° 97° (E) 11:39:43 437.445
VELOX 1 29 Sep 11:32:55 11:36:17 21° 96° (E) 11:39:36 145.980
ESTCUBE 1 29 Sep 11:40:06 11:44:35 61° 101° (E) 11:49:01 437.505/2401.250
NANOSAT C BR1 29 Sep 11:40:54 11:45:01 57° 259° (W) 11:49:09 145.865
SPROUT 29 Sep 12:04:58 12:08:35 27° 97° (E) 12:12:11 437.525
QB50P2 29 Sep 12:06:53 12:10:16 24° 263° (W) 12:13:41 145.880/145.840
POLYITAN 1 29 Sep 12:09:06 12:12:28 23° 263° (W) 12:15:51 437.675
PHONESAT 2.4 29 Sep 12:16:37 12:18:28 15° 2° (N) 12:20:19 2401.200-2431.200
JAS-2 29 Sep 12:18:51 12:24:52 48° 262° (W) 12:31:43 435.910
UKube-1 29 Sep 12:22:23 12:26:23 37° 99° (E) 12:30:21 .
AISAT 29 Sep 12:24:55 12:29:19 81° 285° (WNW) 12:33:40 437.250
AUBIESAT-1 29 Sep 12:31:22 12:34:29 38° 104° (ESE) 12:37:40 437.475
50 SAT 29 Sep 12:35:33 12:39:07 52° 284° (WNW) 12:42:39 437.505
Oscar 19 29 Sep 12:36:47 12:41:32 38° 72° (ENE) 12:46:18 437.125/150
BUGSAT 1 29 Sep 12:39:11 12:42:48 30° 262° (W) 12:46:25 437.445
PCSat 29 Sep 12:44:42 12:49:29 31° 58° (ENE) 12:54:13 145.827
DX 1 29 Sep 12:54:14 12:58:32 63° 285° (WNW) 13:02:47 434.975-435.025
AIST 2 29 Sep 12:58:29 13:02:27 42° 246° (WSW) 13:06:24 435.215
SO-50 29 Sep 13:08:03 13:10:56 16° 108° (ESE) 13:13:48 436.795
VELOX 1 29 Sep 13:09:01 13:12:38 26° 289° (WNW) 13:16:15 145.980
CUBEBUG 1 29 Sep 13:09:03 13:12:04 19° 290° (WNW) 13:15:06 437.445
M-CUBED/EXP-1 PRIME 29 Sep 13:10:28 13:13:28 35° 290° (WNW) 13:16:32 437.505
TISAT 1 29 Sep 13:18:38 13:22:27 35° 99° (E) 13:26:16 437.305
ESTCUBE 1 29 Sep 13:20:32 13:20:48 10° 295° (WNW) 13:21:04 437.505/2401.250
Cosmos 2504 29 Sep 13:26:50 13:30:50 15° 71° (ENE) 13:34:56 435.465 / 435.565
Cosmos 2491 29 Sep 13:30:46 13:38:10 32° 85° (E) 13:45:34 435.465 / 435.565
ITAMSAT 1 29 Sep 13:35:43 13:38:52 16° 66° (ENE) 13:42:00 435.822/435.867
YUBILEINY 29 Sep 13:39:45 13:48:19 60° 81° (E) 13:56:51 435.215
SPROUT 29 Sep 13:41:17 13:44:18 19° 290° (WNW) 13:47:18 437.525
Gurwin Techsat 1B 29 Sep 13:48:27 13:53:46 89° 252° (WSW) 13:59:06 435.225
PHONESAT 2.4 29 Sep 13:52:31 13:55:08 28° 18° (NNE) 13:57:45 2401.200-2431.200
UKube-1 29 Sep 13:59:39 14:02:03 15° 292° (WNW) 14:04:27 .
Oscar 19 29 Sep 14:17:07 14:20:54 20° 265° (W) 14:24:41 437.125/150
PCSat 29 Sep 14:28:09 14:32:43 28° 253° (WSW) 14:37:16 145.827
ITUPSAT 1 29 Sep 14:29:48 14:34:18 39° 99° (E) 14:38:47 437.325
SWISSCUBE 29 Sep 14:41:39 14:46:25 62° 101° (ESE) 14:51:09 437.505
SO-50 29 Sep 14:46:22 14:51:00 46° 301° (WNW) 14:55:39 436.795
AO-7 29 Sep 14:48:08 14:56:11 56° 68° (ENE) 15:04:14 29.400- 29.500
BEESAT 29 Sep 14:54:23 14:59:11 78° 102° (ESE) 15:03:58 436.000
TISAT 1 29 Sep 14:55:29 14:57:46 14° 291° (WNW) 15:00:01 437.305
ITAMSAT 1 29 Sep 15:12:55 15:17:53 48° 260° (W) 15:22:52 435.822/435.867
Cosmos 2504 29 Sep 15:17:12 15:24:48 81° 266° (W) 15:32:57 435.465 / 435.565
Cosmos 2491 29 Sep 15:26:16 15:34:34 46° 281° (WNW) 15:42:58 435.465 / 435.565
PHONESAT 2.4 29 Sep 15:28:28 15:31:17 41° 212° (SSW) 15:34:05 2401.200-2431.200
YUBILEINY 29 Sep 15:38:01 15:44:22 23° 277° (W) 15:50:45 435.215
AIST 1 29 Sep 15:57:18 16:01:31 59° 82° (E) 16:05:42
MOZHAYETS 4 29 Sep 16:03:52 16:08:32 73° 102° (ESE) 16:13:09
ITUPSAT 1 29 Sep 16:08:38 16:11:47 18° 292° (WNW) 16:14:55 437.325
KKS-1 29 Sep 16:15:21 16:19:43 57° 101° (ESE) 16:24:03 437.445
SWISSCUBE 29 Sep 16:22:13 16:23:36 11° 295° (WNW) 16:24:59 437.505
O/OREOS (USA 219) 29 Sep 16:27:18 16:31:38 41° 67° (ENE) 16:35:56 437.305
HORYU 2 29 Sep 16:28:44 16:32:50 41° 73° (ENE) 16:36:58 437.375
AO-7 29 Sep 16:42:32 16:49:11 26° 263° (W) 16:55:51 29.400- 29.500
STARS 29 Sep 16:43:39 16:47:57 55° 101° (E) 16:52:13 437.465
NOAA 18 29 Sep 16:47:44 16:49:31 12° 63° (ENE) 16:51:17 137.9125
GOMX 1 29 Sep 17:00:57 17:05:08 24° 70° (ENE) 17:09:11 467.674
NOAA 15 29 Sep 17:04:16 17:08:39 27° 69° (ENE) 17:13:03 137.62
DOVE 4 29 Sep 17:14:58 17:16:46 12° 68° (ENE) 17:18:32 437.250
BRITE-PL 29 Sep 17:19:53 17:25:35 87° 81° (E) 17:31:14 437.365/2234.400
CUTE-I 29 Sep 17:26:37 17:31:25 36° 71° (ENE) 17:36:13 437.470
Cubesat XI-IV 29 Sep 17:27:07 17:31:55 36° 71° (ENE) 17:36:44 437.490
CUBESAT XI-V 29 Sep 17:28:56 17:33:37 76° 101° (E) 17:38:15 437.345
LilacSat-2 29 Sep 17:52:05 17:55:47 64° 77° (ENE) 17:59:31 437.200
KKS-1 29 Sep 17:55:11 17:55:44 10° 294° (WNW) 17:56:17 437.445
JUGNU 29 Sep 18:03:09 18:06:27 15° 165° (SSE) 18:09:44 437.505
RS-15 29 Sep 18:03:58 18:13:54 36° 105° (ESE) 18:24:16 29.354- 29.394
GONETS M04 29 Sep 18:04:24 18:09:59 18° 69° (ENE) 18:15:30
HORYU 2 29 Sep 18:07:24 18:09:30 13° 266° (W) 18:11:38 437.375
O/OREOS (USA 219) 29 Sep 18:08:15 18:10:36 14° 261° (W) 18:12:57 437.305
CINEMA 3 29 Sep 18:13:15 18:14:06 10° 68° (ENE) 18:14:57 145.822/145.860
ISS 29 Sep 18:19:06 18:22:10 42° 131° (SE) 18:25:16 145.825
STARS 29 Sep 18:23:03 18:23:46 10° 294° (WNW) 18:24:29 437.465
Cosmos 2499 29 Sep 18:23:11 18:28:32 20° 73° (ENE) 18:34:07 435.465 / 435.565
NOAA 18 29 Sep 18:24:00 18:29:28 76° 257° (WSW) 18:34:56 137.9125
CUSAT 1 29 Sep 18:24:15 18:30:09 63° 93° (E) 18:37:30 437.405
DANDE 29 Sep 18:34:37 18:38:35 23° 83° (E) 18:43:25 436.750
GOMX 1 29 Sep 18:38:01 18:42:57 35° 262° (W) 18:47:42 467.674
NOAA 15 29 Sep 18:43:40 18:48:15 30° 262° (W) 18:52:53 137.62
AO-85 29 Sep 18:48:40 18:51:48 16° 108° (ESE) 18:54:51 145.980
DOVE 4 29 Sep 18:48:58 18:53:59 61° 259° (W) 18:58:45 437.250
CUTE-I 29 Sep 19:07:27 19:11:28 22° 264° (W) 19:15:31 437.470
Cubesat XI-IV 29 Sep 19:07:58 19:12:00 22° 264° (W) 19:16:03 437.490
STRAND 1 29 Sep 19:20:40 19:25:37 46° 100° (E) 19:30:33 437.568
HO-68 29 Sep 19:24:01 19:31:08 71° 73° (ENE) 19:38:15 435.675
SEEDS 29 Sep 19:25:17 19:29:06 35° 74° (ENE) 19:32:58 437.485
CUTE 1.7 + AOD 2 29 Sep 19:27:22 19:31:30 58° 76° (ENE) 19:35:41 437.475
CANX-2 29 Sep 19:28:59 19:33:11 73° 77° (ENE) 19:37:26 2200.000
AAUSAT CUBESAT 2 29 Sep 19:42:02 19:45:36 28° 72° (ENE) 19:49:13 437.432
ZACube-1 29 Sep 19:45:01 19:46:02 11° 67° (ENE) 19:47:02 437.345
CINEMA 3 29 Sep 19:46:22 19:50:48 54° 260° (W) 19:55:03 145.822/145.860
JUGNU 29 Sep 19:50:13 19:54:51 24° 174° (S) 19:59:29 437.505
ISS 29 Sep 19:56:46 19:58:48 15° 326° (NW) 20:00:50 145.825
GONETS M04 29 Sep 19:58:49 20:07:37 77° 267° (W) 20:16:18
CUSAT 1 29 Sep 20:08:28 20:12:55 19° 294° (WNW) 20:17:55 437.405
Cosmos 2499 29 Sep 20:14:21 20:22:01 67° 267° (W) 20:30:17 435.465 / 435.565
RS-15 29 Sep 20:14:27 20:25:42 57° 304° (NW) 20:37:37 29.354- 29.394
DANDE 29 Sep 20:16:17 20:20:53 35° 288° (WNW) 20:26:48 436.750
AO-85 29 Sep 20:26:45 20:31:54 53° 300° (WNW) 20:36:47 145.980
COMPASS 1 29 Sep 20:27:55 20:31:58 53° 260° (W) 20:36:05 437.405
FUNcube-1 29 Sep 20:34:40 20:38:33 42° 75° (ENE) 20:42:28 145.935
CUBEBUG 2 29 Sep 20:39:50 20:43:56 50° 260° (W) 20:47:59 437.445
DELFI C3 29 Sep 20:44:24 20:47:23 21° 71° (ENE) 20:50:23 145.870
SRMSAT 29 Sep 20:51:29 20:55:14 17° 167° (SSE) 20:59:00 437.500
UWE-3 29 Sep 20:53:21 20:57:26 55° 260° (W) 21:01:30 435.000/436.395/437.385
STRAND 1 29 Sep 21:01:07 21:04:22 17° 293° (WNW) 21:07:37 437.568
SEEDS 29 Sep 21:02:44 21:04:52 14° 266° (W) 21:07:01 437.485
PRISM 29 Sep 21:09:18 21:13:23 61° 102° (ESE) 21:17:25 437.425
Oscar 11 29 Sep 21:11:22 21:15:36 59° 260° (W) 21:19:52 145.826/435.025
HO-68 29 Sep 21:14:59 21:19:17 17° 266° (W) 21:23:35 435.675
ZACube-1 29 Sep 21:17:53 21:21:51 45° 261° (W) 21:25:50 437.345
AAUSAT CUBESAT 2 29 Sep 21:18:21 21:21:03 17° 265° (W) 21:23:47 437.432
HUMSAT D 29 Sep 21:19:37 21:23:02 26° 72° (ENE) 21:26:27 437.325/437.525
TIGRISAT 29 Sep 21:35:49 21:37:45 13° 94° (E) 21:39:43 435.000
JUGNU 29 Sep 21:38:37 21:43:20 24° 184° (S) 21:47:58 437.505
GONETS M04 29 Sep 22:02:26 22:02:50 10° 283° (WNW) 22:03:15
FUNcube-1 29 Sep 22:14:06 22:14:58 11° 267° (W) 22:15:50 145.935
UNISAT 6 29 Sep 22:15:09 22:19:22 41° 99° (E) 22:23:41 437.425
DELFI C3 29 Sep 22:18:57 22:22:03 22° 264° (W) 22:25:11 145.870
CUBEBUG 1 29 Sep 22:24:51 22:27:07 14° 68° (ENE) 22:29:23 437.445
VELOX 1 29 Sep 22:27:36 22:28:53 11° 66° (ENE) 22:30:09 145.980
RS-15 29 Sep 22:34:56 22:41:44 16° 331° (NNW) 22:48:44 29.354- 29.394
ESTCUBE 1 29 Sep 22:34:57 22:38:54 31° 72° (ENE) 22:42:53 437.505/2401.250
SRMSAT 29 Sep 22:39:07 22:43:49 24° 177° (S) 22:48:30 437.500
ANTELSAT 29 Sep 22:50:16 22:54:43 74° 284° (WNW) 22:59:16 437.575/2403.000
SPROUT 29 Sep 22:55:47 22:57:17 12° 67° (ENE) 22:58:47 437.525
HUMSAT D 29 Sep 22:55:51 22:58:36 17° 265° (W) 23:01:22 437.325/437.525
DUCHIFAT 1 29 Sep 22:59:24 23:00:36 11° 93° (E) 23:01:47 145.980
QB50P1 29 Sep 23:02:54 23:05:22 15° 95° (E) 23:07:49 145.935-145.965
50 SAT 29 Sep 23:07:29 23:10:35 27° 73° (ENE) 23:13:42 437.505
BEESAT 3 29 Sep 23:08:29 23:11:40 25° 111° (ESE) 23:14:52 437.485
TIGRISAT 29 Sep 23:10:20 23:14:34 45° 286° (WNW) 23:18:53 435.000
AUBIESAT-1 29 Sep 23:12:52 23:16:11 25° 69° (ENE) 23:19:21 437.475
UKube-1 29 Sep 23:13:04 23:15:56 18° 69° (ENE) 23:18:48 .
POPSAT HIP 1 29 Sep 23:15:57 23:19:13 22° 96° (E) 23:22:28 437.405
AISAT 29 Sep 23:17:10 23:21:26 47° 74° (ENE) 23:25:42 437.250
SO-50 29 Sep 23:22:32 23:26:48 40° 58° (ENE) 23:30:59 436.795
JUGNU 29 Sep 23:28:11 23:31:43 16° 194° (SSW) 23:35:15 437.505
NANOSAT C BR1 29 Sep 23:30:14 23:33:59 31° 98° (E) 23:37:43 145.865
JAS-2 29 Sep 23:33:38 23:40:44 38° 96° (E) 23:47:19 435.910
DX 1 29 Sep 23:44:32 23:48:49 57° 75° (ENE) 23:53:07 434.975-435.025
M-CUBED/EXP-1 PRIME 29 Sep 23:51:20 23:55:34 78° 255° (WSW) 23:59:28 437.505
Cosmos 2491 29 Sep 23:51:46 23:52:38 10° 64° (ENE) 23:53:31 435.465 / 435.565
UNISAT 6 29 Sep 23:53:18 23:55:43 14° 291° (WNW) 23:58:09 437.425
QB50P2 29 Sep 23:55:30 23:59:45 78° 104° (ESE) 00:03:58 145.880/145.840
POLYITAN 1 29 Sep 23:57:41 00:01:55 79° 102° (ESE) 00:06:09 437.675
CUBEBUG 1 29 Sep 23:58:49 00:03:00 41° 261° (W) 00:07:11 437.445
VELOX 1 30 Sep 00:00:28 00:04:49 54° 260° (W) 00:09:11 145.980
TISAT 1 30 Sep 00:06:54 00:09:10 14° 68° (ENE) 00:11:27 437.305
BEESAT 2 30 Sep 00:07:59 00:11:51 64° 115° (ESE) 00:15:47 435.950
ESTCUBE 1 30 Sep 00:12:29 00:15:41 19° 265° (W) 00:18:54 437.505/2401.250
BUGSAT 1 30 Sep 00:25:07 00:29:03 51° 100° (E) 00:32:59 437.445
SRMSAT 30 Sep 00:27:54 00:32:25 23° 187° (S) 00:36:57 437.500
SPROUT 30 Sep 00:28:40 00:32:46 46° 260° (W) 00:36:52 437.525
DUCHIFAT 1 30 Sep 00:32:27 00:36:26 43° 286° (WNW) 00:40:25 145.980
QB50P1 30 Sep 00:37:24 00:41:10 33° 287° (WNW) 00:44:57 145.935-145.965
50 SAT 30 Sep 00:42:23 00:44:04 13° 266° (W) 00:45:46 437.505
YUBILEINY 30 Sep 00:45:24 00:47:23 11° 78° (ENE) 00:49:22 435.215
BEESAT 3 30 Sep 00:46:20 00:49:14 20° 305° (NW) 00:52:10 437.485
AUBIESAT-1 30 Sep 00:47:37 00:50:32 19° 258° (WSW) 00:53:20 437.475
UKube-1 30 Sep 00:47:51 00:51:41 31° 262° (W) 00:55:32 .
POPSAT HIP 1 30 Sep 00:51:31 00:54:52 23° 289° (WNW) 00:58:12 437.405
Oscar 19 30 Sep 00:54:02 00:57:41 19° 95° (E) 01:01:19 437.125/150
AISAT 30 Sep 00:56:28 00:58:04 12° 267° (W) 00:59:41 437.250
RS-15 30 Sep 01:00:15 01:02:28 11° 11° (N) 01:04:41 29.354- 29.394
SO-50 30 Sep 01:04:16 01:06:52 15° 252° (WSW) 01:09:26 436.795
NANOSAT C BR1 30 Sep 01:06:47 01:09:24 16° 291° (WNW) 01:12:03 145.865
JAS-2 30 Sep 01:18:31 01:25:34 38° 292° (WNW) 01:32:11 435.910
ITUPSAT 1 30 Sep 01:32:08 01:36:04 26° 70° (ENE) 01:40:02 437.325
TISAT 1 30 Sep 01:40:38 01:44:29 35° 262° (W) 01:48:19 437.305
Cosmos 2491 30 Sep 01:42:08 01:50:59 73° 83° (E) 01:59:44 435.465 / 435.565
SWISSCUBE 30 Sep 01:43:19 01:47:45 40° 72° (ENE) 01:52:11 437.505
BEESAT 30 Sep 01:55:51 02:00:25 50° 74° (ENE) 02:05:01 436.000
Cosmos 2504 30 Sep 02:02:31 02:05:02 12° 82° (E) 02:07:32 435.465 / 435.565
Gurwin Techsat 1B 30 Sep 02:09:43 02:14:56 55° 101° (E) 02:20:07 435.225
SRMSAT 30 Sep 02:18:03 02:20:57 14° 196° (SSW) 02:23:53 437.500
ISS 30 Sep 02:26:50 02:30:06 61° 44° (NE) 02:33:21 145.825
